• Processing (Info)

  • MPEC 2020-F11 : 2020 EU

    The following Minor Planet Electronic Circular may be linked-to from your own Web pages, but must not otherwise be redistributed electronically.

    A form allowing access to any MPEC is at the bottom of this page.


    Read MPEC 2020-F10 Read MPEC 2020-F12


    M.P.E.C. 2020-F11                                Issued 2020 March 17, 00:47 UT
    
         The Minor Planet Electronic Circulars contain information on unusual
             minor planets and routine data on comets.  They are published
        on behalf of Division F of the International Astronomical Union by the
              Minor Planet Center, Smithsonian Astrophysical Observatory,
                              Cambridge, MA 02138, U.S.A.
    
                 Prepared using the Tamkin Foundation Computer Network
    
                                  MPC@CFA.HARVARD.EDU
                URL https://www.minorplanetcenter.net/    ISSN 1523-6714
    
                                     2020 EU                                 
    
    
    Observations:
         K20E00U* C2020 03 15.21311 10 54 23.03 +09 31 05.6          20.9 GVEF011G96
         K20E00U  C2020 03 15.21825 10 54 23.03 +09 30 43.6          20.9 GVEF011G96
         K20E00U  C2020 03 15.22339 10 54 22.99 +09 30 21.3          21.1 GVEF011G96
         K20E00U  C2020 03 15.22854 10 54 22.95 +09 29 59.4          20.9 GVEF011G96
         K20E00U  C2020 03 15.24692 10 54 22.81 +09 28 40.5          22.0 GVEF011G96
         K20E00U  C2020 03 15.24962 10 54 22.75 +09 28 30.2          21.0 GVEF011G96
         K20E00U  C2020 03 15.25023 10 54 22.77 +09 28 26.9          21.0 GVEF011G96
         K20E00U  C2020 03 15.25083 10 54 22.77 +09 28 24.6          20.6 GVEF011G96
         K20E00U  C2020 03 15.32352 10 54 22.22 +09 23 13.2          20.6 GVEF011I52
         K20E00U  C2020 03 15.33021 10 54 22.10 +09 22 44.4          21.3 GVEF011I52
         K20E00U  C2020 03 15.33689 10 54 22.08 +09 22 15.9          21.3 GVEF011I52
         K20E00U KC2020 03 15.91157010 54 29.85 +08 41 30.1          21.3 GVEF011L01
         K20E00U KC2020 03 15.91391810 54 29.84 +08 41 20.1          21.2 GVEF011L01
         K20E00U pC2020 03 15.92097910 54 29.81 +08 40 50.7          21.3 GVEF011L01
         K20E00U KC2020 03 15.92294910 54 29.82 +08 40 41.9          21.4 GVEF011L01
         K20E00U IC2020 03 15.92571010 54 29.79 +08 40 29.8          21.4 GVEF011L01
         K20E00U |C2020 03 16.11913 10 54 32.84 +08 28 03.2          21.2 VuEF011807
         K20E00U |C2020 03 16.12535 10 54 32.80 +08 27 37.8          21.3 VuEF011807
         K20E00U |C2020 03 16.13130 10 54 32.71 +08 27 12.8          21.1 VuEF011807
         K20E00U  C2020 03 16.18052 10 54 34.37 +08 22 52.8          20.9 GVEF011I52
         K20E00U  C2020 03 16.18553 10 54 34.34 +08 22 31.7          21.7 GVEF011I52
         K20E00U  C2020 03 16.19054 10 54 34.34 +08 22 11.1          21.0 GVEF011I52
         K20E00U  C2020 03 16.93275 10 54 42.02 +07 30 56.1          20.3 VVEF011033
         K20E00U  C2020 03 16.93633 10 54 42.02 +07 30 41.9          20.5 VVEF011033
         K20E00U  C2020 03 16.93991 10 54 41.99 +07 30 27.8          20.8 VVEF011033
    
    Observer details:
    033 Karl Schwarzschild Observatory, Tautenburg.  Observers U. Laux, S. Melnikov,
        B. Stecklum.  Measurer B. Stecklum.  1.34-m f/3 Schmidt + CCD.
    807 Cerro Tololo Observatory, La Serena.  Observers T. Linder, R. Holmes.  
        0.61-m f/6.5 astrograph + CCD.
    G96 Mt. Lemmon Survey.  Observer G. J. Leonard.  Measurers E. J. Christensen, 
       G. A. Farneth, D. C. Fuls, A. R. Gibbs, A. D. Grauer, H. Groeller, R. A. 
       Kowalski, S. M. Larson, G. J. Leonard, T. A. Pruyne, D. Rankin, R. L. Seaman,
        F. C. Shelly, K. W. Wierzchos.  1.5-m reflector + 10K CCD.
    I52 Steward Observatory, Mt. Lemmon Station.  Observer K. W. Wierzchos.  
        Measurers E. J. Christensen, G. A. Farneth, D. C. Fuls, A. R. Gibbs, A. D. 
       Grauer, H. Groeller, R. A. Kowalski, S. M. Larson, G. J. Leonard, T. A. 
       Pruyne, D. Rankin, R. L. Seaman, F. C. Shelly, K. W. Wierzchos.  1.0-m 
       reflector + CCD.
    L01 Visnjan Observatory, Tican.  Observer K. Korlevic.  1.0-m f/2.9 reflector + 
       CCD.
    
    Orbital elements:
    2020 EU                                                  Earth MOID = 0.1425 AU
    Epoch 2020 May 31.0 TT = JDT 2459000.5                  Bell
    M  45.27518              (2000.0)            P               Q
    n   0.41650693     Peri.  147.34321     -0.79114502     -0.61145136
    a   1.7757748      Node   354.88756     +0.51969797     -0.65934417
    e   0.3737013      Incl.    9.51072     +0.32249587     -0.43748429
    P   2.37           H   24.1           G   0.15           U   7
    Residuals in seconds of arc
    200315 G96  0.4-  0.1+    200315 I52  0.3-  0.1-    200316 807  0.7-  0.1+
    200315 G96  0.1+  0.1+    200315 I52  0.1+  0.1+    200316 I52  0.0   0.3+
    200315 G96  0.1+  0.3-    200315 L01  0.1+  0.2+    200316 I52  0.1-  0.1-
    200315 G96  0.1+  0.2-    200315 L01  0.1+  0.0     200316 I52  0.2+  0.1+
    200315 G96  0.1+  0.6-    200315 L01  0.1+  0.3+    200316 033  0.1+  0.5-
    200315 G96  0.5-  0.7+    200315 L01  0.3+  0.2-    200316 033  0.1+  0.1-
    200315 G96  0.1-  0.0     200315 L01  0.1+  0.7-    200316 033  0.3-  0.4+
    200315 G96  0.0   0.2+    200316 807  0.1+  0.2-
    200315 I52  0.7+  0.1+    200316 807  0.1+  0.3+
    
    Ephemeris:
    2020 EU                  a,e,i = 1.78, 0.37, 10                  q = 1.1122
    Date    TT    R. A. (2000) Decl.     Delta      r    Elong.  Phase     V
    2020 02 16    10 51 35.9 +47 02 49   0.1507  1.1127   143.6    31.8    21.6
    ...
    2020 03 02    10 53 28.7 +27 25 24   0.1442  1.1275   159.8    17.7    21.1
    ...
    2020 03 10    10 53 42.7 +16 09 03   0.1540  1.1432   166.1    12.0    21.1
    ...
    2020 03 16    10 54 30.5 +08 35 53   0.1677  1.1581   166.0    12.0    21.3
    2020 03 17    10 54 42.8 +07 27 01   0.1705  1.1608   165.5    12.4    21.3
    2020 03 18    10 54 56.6 +06 20 13   0.1734  1.1636   165.0    12.8    21.4
    ...
    2020 03 24    10 56 52.7 +00 23 26   0.1939  1.1819   160.9    16.0    21.8
    ...
    2020 04 01    11 01 08.6 -05 41 27   0.2282  1.2097   154.8    20.6    22.3
    ...
    2020 04 16    11 14 12.3 -12 48 53   0.3108  1.2705   144.9    27.0    23.3
    
    A. U. Tomatic                (C) Copyright 2020 MPC           M.P.E.C. 2020-F11
    


    Read MPEC 2020-F10 Read MPEC 2020-F12


    MPEC number:

    Enter an MPEC number in one of the following forms:

    • 1997-B01 (the full form)
    • J97B01 (the packed version of the full form)
    • B01 (the abbreviated form)